SCP
0 0 0 0 0 0 0 0 0 0 0 0 0 0 0 0 0 0 0 0 0 0 0 0 0 0 0 0 0 0 0 0 0 1 0 0 0 0 0 0 0 0 0 0 0 0 0 0 0 0 0 0 0 0
0 0 0 0 0 0 0 0 0 0 0 0 0 0 0 0 0 0 0 0 0 0 0 0 0 0 0 0 0 0 0 0 0 1 1 0 0 0 0 0 0 0 0 0 0 0 0 0 0 0 0 0 0 0
0 0 0 0 0 0 0 0 0 0 0 0 0 0 0 0 0 0 0 0 0 0 0 0 0 0 0 -0 0 0 0 0 0 0 1 0 0 0 0 0 0 0 0 0 0 0 0 0 0 0 0 0 0 0
0 0 0 0 0 0 0 0 0 0 0 0 0 0 0 0 0 0 0 0 0 0 0 0 0 0 0 0 0 0 0 0 0 0 0 0 0 0 0 0 0 0 0 0 0 0 0 0 0 0 0 0 0 0
0 0 0 0 0 0 0 0 0 0 0 0 0 0 0 0 0 0 0 0 0 0 0 0 0 0 0 0 0 0 0 -0 0 0 0 0 0 0 0 0 0 0 0 0 0 0 0 -0 0 0 0 0 -0 0
0 0 0 0 0 0 0 0 0 0 0 0 0 0 0 0 0 0 0 0 0 0 0 0 0 0 0 0 0 0 0 0 0 0 0 0 0 0 0 0 0 0 0 0 0 0 0 0 0 0 0 0 -0 -0
0 0 0 0 0 0 0 0 0 0 0 0 0 0 0 0 0 0 0 0 0 0 -0 0 0 0 0 0 0 0 0 0 0 0 0 0 0 0 0 0 0 0 0 0 0 0 0 0 0 0 0 0 0 -0
0 0 0 0 0 0 0 0 0 0 0 0 0 0 0 0 0 0 0 0 0 0 -0 0 0 0 0 0 0 0 0 0 0 0 0 0 0 0 0 0 0 0 0 0 0 0 0 0 0 0 0 0 0 0
0 0 0 0 0 0 0 0 0 0 0 0 0 0 0 0 0 0 0 0 0 0 0 0 0 0 0 0 0 0 0 0 0 0 0 0 0 0 0 0 0 0 0 0 0 0 0 0 0 0 0 0 0 0
0 0 0 0 0 0 0 0 0 0 0 0 0 0 0 -0 -0 -0 -0 0 0 0 0 0 0 0 -0 0 -0 0 0 0 0 0 0 0 0 0 0 0 0 0 -0 0 0 0 0 0 0 0 0 0 0 0
0 0 0 0 0 0 0 0 0 0 0 0 0 0 -0 -0 -0 0 -0 -0 0 0 0 0 0 0 -0 -0 -0 0 0 0 0 0 0 0 0 0 0 0 -0 0 0 0 0 0 0 0 0 0 0 0 0 0
0 0 0 0 0 0 0 0 0 0 0 0 0 0 0 -0 -0 0 -0 0 0 0 0 0 0 -0 0 -0 -0 0 0 0 0 0 0 0 0 0 0 0 0 0 0 0 0 0 0 0 0 0 0 0 0 0
0 0 0 0 -0 -0 0 0 -0 0 -0 0 0 0 0 -0 -0 -0 0 0 0 0 -0 0 0 0 0 0 -0 -0 0 0 0 -0 0 0 0 0 0 0 0 0 0 0 0 0 0 0 0 0 0 -0 -0 0
0 0 0 0 -0 -0 -0 -0 -0 0 0 0 0 0 0 0 0 0 0 -0 -0 0 0 0 0 0 0 0 -0 -0 0 0 0 0 0 0 0 0 0 0 -0 0 0 0 0 0 0 0 0 0 0 0 0 0
0 0 0 0 0 -0 -0 -0 0 0 0 0 0 0 0 0 0 0 0 -0 0 0 0 0 0 0 0 0 0 0 0 0 0 0 0 0 -0 -0 0 0 0 0 0 0 0 0 0 0 0 0 0 0 0 0
0 0 0 0 0 0 0 0 0 0 0 0 0 0 0 0 0 0 0 0 -0 0 0 -0 0 0 0 0 0 0 0 0 0 0 0 0 -0 -0 0 0 0 0 0 0 0 0 0 0 0 0 0 0 0 0
0 0 0 0 0 0 0 0 0 0 0 0 0 0 0 0 0 0 0 0 0 0 0 0 0 0 0 0 0 0 0 0 0 0 0 -0 -0 -0 -0 0 0 0 0 0 0 0 0 0 0 0 0 0 0 0
0 0 0 0 0 0 0 0 0 0 0 0 0 0 0 0 0 0 0 0 0 0 -0 0 0 0 0 0 0 0 0 0 0 0 -0 0 -0 -0 -0 0 0 0 0 0 0 0 0 0 0 0 0 0 0 0
0 0 0 0 0 0 0 0 0 -0 -0 0 0 0 0 0 0 0 0 0 0 0 0 0 0 0 0 0 0 0 0 0 0 0 0 0 0 -0 0 0 0 0 0 0 0 0 0 0 0 0 0 0 0 0
-0 -0 -0 -0 -0 0 0 0 0 0 0 0 0 0 0 0 0 0 0 0 0 0 0 0 0 0 0 0 0 0 0 0 0 0 0 0 0 0 0 0 0 0 0 0 0 0 0 0 0 0 0 0 0 0
0 0 0 0 0 0 0 0 0 0 0 0 0 0 0 0 0 0 0 0 0 0 0 0 0 0 0 0 0 0 0 0 0 0 0 0 0 0 0 0 0 0 0 0 0 0 0 0 0 0 0 0 0 0
0 0 0 0 0 0 0 0 0 0 0 0 0 0 0 0 0 0 0 0 0 0 0 0 0 0 -0 -0 0 0 0 0 0 0 0 0 0 0 0 0 0 0 0 0 0 0 0 0 0 0 0 0 0 0
0 -0 0 0 0 0 0 0 0 -0 -0 0 -0 -0 -0 0 0 0 0 0 0 0 0 0 0 0 -0 -0 -0 0 0 0 0 0 0 0 0 0 0 0 0 0 0 0 0 0 0 0 0 0 0 0 0 0
0 0 0 0 0 0 0 -0 -0 0 0 0 -0 0 0 0 0 0 0 0 0 0 0 0 0 0 0 0 0 0 0 0 0 0 0 0 0 0 0 0 0 0 0 0 0 0 0 0 0 0 0 0 0 0
0 0 0 0 0 0 0 0 0 0 0 0 0 0 0 0 0 0 0 0 0 0 0 0 0 0 0 0 0 0 0 0 0 0 0 0 0 0 0 0 0 0 0 0 0 0 0 0 0 0 0 0 0 0
0 0 0 0 0 0 0 0 0 0 0 0 0 0 0 0 0 0 0 0 0 0 0 0 0 0 0 0 0 0 0 0 0 0 0 0 0 0 0 0 0 0 0 0 0 0 0 0 0 0 0 0 0 0
0 0 0 0 0 0 0 0 0 0 0 0 0 0 0 0 0 0 -0 -0 -0 -0 0 0 -0 -0 -0 0 -0 0 0 0 0 0 0 0 0 0 0 0 0 0 0 0 0 0 0 0 0 0 0 -0 -0 -0
0 0 0 0 0 0 0 0 0 0 0 -0 -0 0 0 0 0 0 0 0 -0 -0 0 0 0 0 0 0 0 0 0 0 -0 -0 0 0 0 0 0 0 0 0 0 -0 -0 -0 -0 -0 -0 -0 -0 -0 -0 -0
0 0 0 0 0 0 -0 0 0 0 -0 -0 0 0 0 0 0 0 0 0 0 0 0 0 0 0 0 -0 -0 0 -0 0 -0 0 0 -0 0 0 0 -0 0 0 0 -0 0 -0 -0 0 0 0 0 -0 -0 -0
0 0 0 0 0 0 0 0 0 -0 -0 0 0 0 0 0 0 0 0 0 0 0 0 0 0 0 -0 -0 -0 -0 0 0 0 -0 -0 0 -0 0 -0 -0 0 -0 -0 0 0 0 0 0 0 -0 0 0 0 0
0 0 0 0 0 0 0 -0 0 0 0 0 0 0 0 0 0 0 0 0 0 0 0 0 0 0 0 -0 -0 -0 -0 0 0 -0 -0 -0 -0 -0 -0 -0 -0 -0 -0 0 0 0 0 -0 -0 0 0 0 0 0
0 0 0 0 0 0 0 0 0 0 0 0 0 0 0 0 0 0 0 0 0 0 0 0 0 0 0 0 0 -0 -0 -0 -0 -0 0 -0 0 0 0 0 0 0 0 0 0 0 0 0 0 0 0 0 0 0
0 0 0 0 0 0 0 0 0 0 0 0 0 0 0 0 0 0 0 0 0 -0 -0 -0 0 0 0 0 0 0 0 -0 0 0 0 0 0 0 0 0 0 0 0 -0 -0 0 0 0 0 0 0 0 0 0
Wind_Speed_500mb
28 29 29 28 27 24 23 23 22 22 15 13 14 19 23 23 20 19 18 14 17 15 40 42 41 37 30 22 12 12 15 5 7 7 8 3 7 5 7 5 16 15 14 10 7 13 17 24 21 20 13 9 27 35
26 26 25 24 24 25 27 27 25 22 16 10 16 16 21 18 18 20 20 13 14 26 34 53 59 57 50 41 18 11 11 16 8 7 3 8 5 7 9 8 2 10 10 15 19 14 4 48 10 17 11 15 26 33
23 24 23 24 27 28 28 27 24 22 21 18 18 23 25 20 18 19 25 21 22 27 42 26 27 25 26 38 46 28 22 15 10 7 10 2 2 4 3 8 8 1 2 8 10 9 11 36 16 19 11 9 34 34
24 24 25 26 27 28 27 27 25 22 20 17 16 21 23 21 20 22 25 27 19 14 12 18 18 47 38 35 34 62 40 8 6 6 15 5 6 2 5 7 7 6 10 15 7 4 7 17 22 19 19 30 38 41
23 25 26 26 26 27 27 25 22 22 20 18 17 16 24 20 20 23 26 26 25 19 10 31 59 7 27 25 41 44 48 48 16 8 7 3 6 6 12 7 14 14 7 7 10 32 14 37 38 33 35 43 45 45
27 28 27 25 24 25 25 24 20 18 19 17 17 17 24 24 18 19 9 6 10 26 10 8 19 22 22 10 22 46 46 31 19 11 8 4 6 17 7 7 12 16 13 9 3 47 10 34 38 41 39 46 43 37
30 25 22 22 23 22 23 24 20 17 15 17 19 20 26 25 19 13 9 3 7 2 8 13 12 12 19 1 12 20 29 19 17 11 13 13 15 13 5 15 5 14 15 13 1 46 16 44 35 46 43 47 43 39
23 20 19 20 20 19 20 19 21 20 16 16 17 17 23 22 26 20 10 16 16 19 11 6 9 11 6 5 8 15 17 19 19 14 10 15 16 11 10 48 44 50 42 23 24 36 19 36 36 41 45 50 46 40
20 19 19 19 19 15 17 18 22 18 17 15 16 23 23 21 13 7 9 14 18 17 6 6 6 7 18 6 9 14 15 10 11 10 9 16 7 9 18 29 36 50 32 24 32 22 21 32 38 42 48 50 45 44
22 22 20 18 18 15 16 19 19 14 12 12 19 6 5 2 8 11 7 7 11 11 13 8 8 9 9 7 6 7 11 7 9 12 12 10 16 51 63 40 17 16 15 20 36 24 29 36 38 43 51 52 53 49
24 23 21 19 17 15 17 18 9 7 5 4 4 5 12 12 9 7 7 10 10 7 11 11 20 13 8 6 2 8 5 4 6 7 8 8 11 26 60 79 64 29 23 25 32 31 33 41 47 45 51 49 49 50
26 23 22 21 18 13 14 17 5 7 6 7 14 23 12 5 5 4 6 6 8 6 9 7 10 15 9 9 7 2 5 2 6 2 6 6 8 15 43 44 51 35 29 17 20 11 37 31 37 37 40 42 42 46
20 20 21 21 17 12 12 11 9 7 8 11 6 5 5 5 3 6 6 5 5 3 4 11 9 6 6 10 6 6 8 6 2 5 6 6 9 14 13 47 44 42 41 22 15 17 25 30 30 31 34 35 35 41
17 17 20 18 13 10 12 13 9 5 5 5 6 5 7 6 7 5 3 3 10 21 39 34 13 7 5 6 4 6 4 5 4 5 5 6 17 21 18 20 46 48 44 38 38 37 23 19 29 38 34 36 43 49
13 18 14 6 9 11 14 13 8 6 5 5 6 7 10 14 12 14 13 8 31 38 28 16 10 7 6 4 4 4 5 4 5 3 5 14 23 24 26 12 15 31 44 55 54 49 44 33 29 32 30 32 37 41
14 12 6 5 6 8 12 11 9 6 6 7 10 8 14 12 13 9 12 23 23 20 17 6 4 5 2 3 5 4 3 4 1 4 11 18 19 19 18 28 9 15 25 33 41 47 51 44 42 43 35 28 40 35
10 5 3 10 10 12 15 14 8 7 7 8 11 16 24 23 20 25 27 16 31 21 4 3 5 3 3 5 4 3 5 6 8 5 9 16 21 23 16 25 25 8 16 31 35 39 36 50 44 40 35 32 38 38
12 9 10 5 10 10 14 8 6 8 11 18 13 16 17 27 28 28 26 28 16 9 8 3 5 6 6 5 3 1 7 6 5 7 12 15 21 26 29 20 27 24 11 10 22 31 35 40 41 40 33 28 31 27
15 14 6 10 12 6 7 8 9 8 15 17 23 28 24 27 40 40 37 30 24 19 12 6 7 5 3 3 6 9 7 3 5 12 15 17 24 27 23 16 11 15 15 11 18 28 27 30 28 34 37 30 28 29
18 17 11 12 20 5 6 8 11 10 10 8 20 19 16 20 27 28 24 24 16 8 11 7 7 4 5 7 14 11 7 3 9 11 14 16 21 23 25 20 13 10 19 15 8 13 26 31 32 33 40 39 40 42
15 9 7 9 13 12 7 6 9 11 13 12 18 15 15 19 19 17 18 21 17 12 12 21 23 23 11 12 20 20 10 1 6 10 11 17 21 21 20 25 17 9 3 6 5 8 14 19 27 31 29 34 38 34
12 11 7 10 10 6 11 13 11 14 11 15 16 13 14 10 10 9 8 13 11 24 29 35 47 45 38 33 22 16 11 1 2 9 7 15 23 23 21 22 26 18 8 5 4 2 4 8 18 25 23 28 31 36
8 9 9 12 9 8 9 11 10 7 7 7 6 7 7 7 8 7 8 11 14 25 34 42 45 47 47 42 30 21 16 9 1 4 1 8 16 19 18 19 12 15 16 8 6 11 16 20 22 27 27 33 41 42
13 7 6 10 13 7 6 9 10 8 8 7 3 7 8 9 6 7 7 8 13 15 16 19 18 20 28 36 42 39 29 18 13 6 2 4 12 15 14 12 6 3 9 11 12 17 23 26 24 38 36 37 45 50
5 9 7 10 10 8 7 6 8 7 7 4 6 9 6 6 5 6 5 6 3 8 8 6 10 19 20 22 30 38 40 30 24 16 8 5 5 9 11 9 7 8 8 7 13 26 29 26 26 49 50 48 46 41
7 12 14 9 10 9 6 5 4 1 5 7 8 8 7 5 6 7 2 4 9 10 10 9 10 12 15 18 24 29 37 31 31 18 9 9 4 3 6 6 10 7 7 11 18 31 38 41 46 42 42 34 21 19
6 9 13 14 10 8 10 16 15 7 8 6 1 7 5 6 7 4 8 11 15 16 14 13 14 13 14 14 14 20 31 27 24 15 12 14 10 4 5 11 11 8 15 24 21 17 16 23 29 21 27 30 26 32
12 8 8 7 12 15 7 7 5 6 4 4 2 3 5 6 5 13 16 20 16 11 9 6 3 8 11 14 17 25 27 27 23 21 25 21 16 18 19 18 24 27 30 31 31 30 31 30 29 29 28 26 30 35
10 10 10 17 13 12 13 10 6 8 10 11 6 5 7 14 37 58 38 23 12 10 11 10 7 7 14 24 25 24 24 26 31 29 27 28 31 26 19 34 39 35 36 25 30 31 28 30 30 27 27 28 27 26
12 19 10 9 7 7 9 12 13 16 18 30 29 27 33 37 11 12 15 15 12 15 20 26 24 18 20 27 29 25 23 23 21 27 44 44 29 33 37 43 39 23 27 28 29 28 30 29 24 19 17 16 15 16
8 7 9 11 9 19 28 33 39 41 40 36 33 24 15 5 9 14 19 25 27 24 25 26 29 30 26 26 25 28 29 25 25 19 25 42 32 25 22 22 24 31 31 29 31 30 27 23 22 20 16 10 7 8
10 16 10 6 8 22 31 23 13 1 5 5 3 4 3 7 8 9 13 21 24 23 25 24 22 25 27 32 35 37 40 38 40 46 40 39 39 36 35 32 30 27 25 25 24 22 19 15 11 9 8 4 2 3
9 12 15 13 9 8 3 3 8 7 7 7 10 12 11 8 9 12 16 18 18 21 24 25 28 32 34 37 41 42 45 47 47 43 39 35 31 28 26 24 23 21 19 18 15 11 5 1 5 9 6 5 8 11
Wind_Direction_500mb
309 311 314 314 315 317 317 315 314 314 311 324 300 302 308 312 312 307 295 259 235 254 271 266 262 266 271 273 258 314 315 197 272 234 185 276 265 355 303 205 171 161 149 169 140 199 232 158 135 196 210 136 170 171
311 313 317 317 316 317 316 314 311 307 287 287 304 319 315 318 317 302 298 285 253 250 260 280 275 268 250 246 263 261 284 306 295 291 234 136 292 337 11 264 81 206 184 165 194 199 75 177 173 182 170 154 166 165
311 311 311 311 313 314 312 312 311 299 296 262 288 293 296 300 314 293 288 289 284 280 289 274 278 301 264 243 232 236 250 228 235 337 299 91 224 313 266 298 299 255 205 111 148 178 212 193 186 196 207 172 162 164
311 311 313 314 313 312 312 312 311 305 289 278 269 293 296 295 291 303 287 284 276 274 278 289 290 291 274 259 243 221 220 215 275 279 260 158 170 139 259 290 309 295 172 141 92 74 132 195 200 192 171 154 153 154
304 305 307 307 310 314 313 313 308 304 297 279 261 275 291 295 297 294 296 282 259 241 286 292 306 240 309 231 227 224 222 235 272 300 261 191 160 109 277 296 251 210 172 189 176 178 169 196 190 174 163 159 157 154
302 300 296 297 304 310 315 312 301 297 301 290 266 262 287 296 312 322 297 265 243 232 288 301 302 303 330 291 234 216 217 214 214 207 241 186 277 190 236 234 256 215 182 247 5 174 186 178 171 167 163 159 156 154
308 307 303 304 305 306 320 320 320 302 294 300 288 270 278 283 290 272 259 270 51 41 270 291 286 289 325 80 140 169 178 193 200 221 221 193 215 224 261 255 286 20 327 262 36 163 146 166 173 169 167 163 156 154
309 308 307 308 310 309 319 313 314 309 302 292 299 283 281 279 285 285 274 246 270 256 258 271 280 297 325 227 139 159 169 186 204 226 231 209 135 209 237 248 253 271 280 272 201 188 205 184 173 171 172 171 169 165
306 306 309 313 313 307 316 312 315 305 306 281 293 291 286 265 257 254 235 256 248 218 265 256 287 304 330 284 166 176 169 178 194 220 217 184 142 229 232 233 229 222 228 231 197 193 185 183 178 184 181 179 177 177
305 304 304 308 306 299 308 315 316 306 296 286 304 288 285 306 306 289 250 228 213 208 223 253 251 270 308 297 218 179 190 194 194 211 163 222 221 229 241 260 260 249 251 193 182 196 188 180 183 180 186 191 190 190
295 296 298 300 299 289 309 319 326 306 322 323 304 272 293 316 289 226 245 223 171 233 217 240 229 242 254 266 41 339 302 181 227 156 219 223 243 218 231 238 251 229 192 201 198 209 204 197 187 182 190 199 198 200
288 290 291 291 291 274 305 322 305 284 265 289 298 296 302 252 238 298 257 181 217 244 200 222 251 223 253 230 239 344 299 338 264 149 230 247 240 263 219 220 230 222 203 180 191 188 191 184 185 187 194 201 206 208
289 289 293 291 277 253 287 286 265 291 248 262 273 262 272 240 242 213 229 210 253 345 359 306 287 261 243 229 237 182 215 237 300 214 248 261 347 336 275 219 217 216 209 217 228 206 195 199 194 195 199 201 201 203
290 292 296 292 250 242 277 277 240 273 275 251 243 244 224 230 241 241 351 24 320 279 299 298 267 243 218 212 192 237 197 230 232 226 250 357 340 337 335 245 237 231 222 239 242 235 226 230 218 207 206 208 210 213
286 301 300 232 245 256 267 215 187 230 266 267 251 246 230 250 283 285 293 299 287 287 279 286 263 237 221 234 215 294 227 263 250 288 348 341 338 338 5 5 224 225 233 239 239 238 235 233 224 212 218 217 208 203
292 301 258 215 250 280 250 213 176 208 258 249 240 261 260 276 285 300 308 306 323 312 304 234 298 267 121 310 253 252 266 251 3 331 319 334 348 351 354 15 5 224 214 221 222 228 229 224 225 220 222 213 203 193
282 245 267 294 277 239 196 181 176 235 242 246 247 249 266 279 267 273 280 292 325 325 310 287 215 340 22 279 228 158 244 325 329 340 343 344 354 11 28 35 32 51 217 215 219 220 217 204 206 208 213 214 205 200
233 218 355 75 110 121 166 168 230 249 248 245 251 262 244 257 270 278 282 296 307 302 298 317 290 235 249 285 70 116 269 290 329 4 5 24 29 26 26 32 22 48 55 145 167 174 178 188 196 201 195 193 175 178
243 238 236 169 160 151 181 222 231 263 254 265 262 268 267 270 277 282 280 281 281 269 277 263 261 245 281 282 299 295 318 309 7 357 14 28 29 28 33 55 22 60 116 136 171 162 167 173 186 196 185 168 177 182
238 239 236 202 199 249 240 226 212 255 266 274 272 270 266 263 276 280 275 268 253 214 216 218 233 244 188 43 14 353 336 72 46 21 26 25 17 14 18 23 31 52 49 58 106 183 197 188 190 192 199 202 200 195
212 218 229 187 213 241 276 271 253 248 281 264 282 283 270 269 264 257 257 248 201 211 222 224 240 253 265 282 334 342 349 59 44 25 19 11 7 6 13 16 10 16 93 51 66 197 199 191 201 208 214 213 212 206
199 203 220 226 218 244 255 239 251 288 269 265 287 258 263 269 262 237 217 200 234 231 227 233 240 250 257 263 282 311 319 320 34 13 3 7 10 17 11 2 16 21 14 53 95 134 155 194 214 210 195 177 173 165
212 220 242 191 220 236 254 229 245 241 261 264 269 264 256 254 241 224 243 226 242 246 250 248 254 256 254 257 256 263 261 243 219 27 18 356 3 10 11 11 9 31 45 51 108 134 138 124 122 127 136 145 145 142
206 210 250 197 213 262 254 232 225 252 255 249 319 275 248 244 233 232 249 242 245 271 275 264 254 247 239 238 239 238 232 225 223 244 224 336 358 3 5 16 22 12 54 64 101 113 120 123 131 139 137 137 132 128
210 220 224 240 220 237 231 239 222 231 255 193 234 243 248 260 246 233 230 257 284 328 328 301 243 235 231 233 233 229 225 234 235 237 254 228 357 10 37 44 55 66 75 100 140 122 128 119 141 136 129 130 128 125
242 207 193 217 205 219 237 264 226 216 285 251 251 276 288 278 262 259 241 307 312 318 303 283 261 254 253 244 235 224 214 216 205 217 231 188 143 95 56 78 106 97 106 123 126 136 134 143 144 143 130 124 113 115
243 232 220 235 258 275 263 258 259 247 254 240 342 340 326 264 251 295 333 341 342 334 320 309 244 246 253 241 218 196 189 188 194 223 210 168 149 130 102 120 109 88 132 141 153 162 157 152 144 137 128 131 149 146
241 269 239 215 219 228 259 269 241 239 232 140 84 336 289 290 296 322 307 351 343 4 14 3 285 244 217 189 170 168 174 190 202 173 151 139 120 108 113 119 111 103 106 110 113 118 128 129 128 132 138 146 142 151
237 237 240 260 252 240 223 225 245 247 202 166 180 209 239 243 279 299 316 332 3 30 34 36 61 88 145 156 152 158 171 160 158 159 149 129 119 108 115 124 107 96 110 133 125 124 137 132 127 120 118 122 135 156
248 219 225 244 227 230 245 232 263 283 269 289 280 270 274 293 345 30 47 62 77 68 75 78 80 93 121 153 151 142 140 150 155 162 140 126 129 125 112 130 127 133 134 132 135 128 136 131 127 125 129 135 149 166
255 220 236 237 252 260 278 291 283 277 272 270 279 257 253 295 69 67 81 70 60 77 88 88 88 87 90 104 124 141 142 144 140 133 143 151 154 152 156 144 131 128 122 114 120 121 121 110 99 92 90 96 117 169
221 214 242 270 287 285 290 274 261 250 51 51 8 12 68 92 71 58 44 41 49 90 89 87 86 86 94 102 111 115 117 121 129 135 131 131 133 132 132 131 130 124 114 114 118 121 118 111 98 69 58 67 66 187
236 252 269 290 283 282 276 352 75 68 336 336 32 37 49 51 63 39 45 58 89 108 102 93 85 85 103 116 113 113 118 123 127 134 138 140 138 135 134 132 132 135 131 121 113 115 122 328 319 312 284 257 227 211
Wind_Speed_850mb
28 29 29 28 27 24 23 23 22 22 15 13 14 19 23 23 20 19 18 14 17 15 40 42 41 37 30 22 12 12 15 5 7 7 8 3 7 5 7 5 16 15 14 10 7 13 17 24 21 20 13 9 27 35
26 26 25 24 24 25 27 27 25 22 16 10 16 16 21 18 18 20 20 13 14 26 34 53 59 57 50 41 18 11 11 16 8 7 3 8 5 7 9 8 2 10 10 15 19 14 4 48 10 17 11 15 26 33
23 24 23 24 27 28 28 27 24 22 21 18 18 23 25 20 18 19 25 21 22 27 42 26 27 25 26 38 46 28 22 15 10 7 10 2 2 4 3 8 8 1 2 8 10 9 11 36 16 19 11 9 34 34
24 24 25 26 27 28 27 27 25 22 20 17 16 21 23 21 20 22 25 27 19 14 12 18 18 47 38 35 34 62 40 8 6 6 15 5 6 2 5 7 7 6 10 15 7 4 7 17 22 19 19 30 38 41
23 25 26 26 26 27 27 25 22 22 20 18 17 16 24 20 20 23 26 26 25 19 10 31 59 7 27 25 41 44 48 48 16 8 7 3 6 6 12 7 14 14 7 7 10 32 14 37 38 33 35 43 45 45
27 28 27 25 24 25 25 24 20 18 19 17 17 17 24 24 18 19 9 6 10 26 10 8 19 22 22 10 22 46 46 31 19 11 8 4 6 17 7 7 12 16 13 9 3 47 10 34 38 41 39 46 43 37
30 25 22 22 23 22 23 24 20 17 15 17 19 20 26 25 19 13 9 3 7 2 8 13 12 12 19 1 12 20 29 19 17 11 13 13 15 13 5 15 5 14 15 13 1 46 16 44 35 46 43 47 43 39
23 20 19 20 20 19 20 19 21 20 16 16 17 17 23 22 26 20 10 16 16 19 11 6 9 11 6 5 8 15 17 19 19 14 10 15 16 11 10 48 44 50 42 23 24 36 19 36 36 41 45 50 46 40
20 19 19 19 19 15 17 18 22 18 17 15 16 23 23 21 13 7 9 14 18 17 6 6 6 7 18 6 9 14 15 10 11 10 9 16 7 9 18 29 36 50 32 24 32 22 21 32 38 42 48 50 45 44
22 22 20 18 18 15 16 19 19 14 12 12 19 6 5 2 8 11 7 7 11 11 13 8 8 9 9 7 6 7 11 7 9 12 12 10 16 51 63 40 17 16 15 20 36 24 29 36 38 43 51 52 53 49
24 23 21 19 17 15 17 18 9 7 5 4 4 5 12 12 9 7 7 10 10 7 11 11 20 13 8 6 2 8 5 4 6 7 8 8 11 26 60 79 64 29 23 25 32 31 33 41 47 45 51 49 49 50
26 23 22 21 18 13 14 17 5 7 6 7 14 23 12 5 5 4 6 6 8 6 9 7 10 15 9 9 7 2 5 2 6 2 6 6 8 15 43 44 51 35 29 17 20 11 37 31 37 37 40 42 42 46
20 20 21 21 17 12 12 11 9 7 8 11 6 5 5 5 3 6 6 5 5 3 4 11 9 6 6 10 6 6 8 6 2 5 6 6 9 14 13 47 44 42 41 22 15 17 25 30 30 31 34 35 35 41
17 17 20 18 13 10 12 13 9 5 5 5 6 5 7 6 7 5 3 3 10 21 39 34 13 7 5 6 4 6 4 5 4 5 5 6 17 21 18 20 46 48 44 38 38 37 23 19 29 38 34 36 43 49
13 18 14 6 9 11 14 13 8 6 5 5 6 7 10 14 12 14 13 8 31 38 28 16 10 7 6 4 4 4 5 4 5 3 5 14 23 24 26 12 15 31 44 55 54 49 44 33 29 32 30 32 37 41
14 12 6 5 6 8 12 11 9 6 6 7 10 8 14 12 13 9 12 23 23 20 17 6 4 5 2 3 5 4 3 4 1 4 11 18 19 19 18 28 9 15 25 33 41 47 51 44 42 43 35 28 40 35
10 5 3 10 10 12 15 14 8 7 7 8 11 16 24 23 20 25 27 16 31 21 4 3 5 3 3 5 4 3 5 6 8 5 9 16 21 23 16 25 25 8 16 31 35 39 36 50 44 40 35 32 38 38
12 9 10 5 10 10 14 8 6 8 11 18 13 16 17 27 28 28 26 28 16 9 8 3 5 6 6 5 3 1 7 6 5 7 12 15 21 26 29 20 27 24 11 10 22 31 35 40 41 40 33 28 31 27
15 14 6 10 12 6 7 8 9 8 15 17 23 28 24 27 40 40 37 30 24 19 12 6 7 5 3 3 6 9 7 3 5 12 15 17 24 27 23 16 11 15 15 11 18 28 27 30 28 34 37 30 28 29
18 17 11 12 20 5 6 8 11 10 10 8 20 19 16 20 27 28 24 24 16 8 11 7 7 4 5 7 14 11 7 3 9 11 14 16 21 23 25 20 13 10 19 15 8 13 26 31 32 33 40 39 40 42
15 9 7 9 13 12 7 6 9 11 13 12 18 15 15 19 19 17 18 21 17 12 12 21 23 23 11 12 20 20 10 1 6 10 11 17 21 21 20 25 17 9 3 6 5 8 14 19 27 31 29 34 38 34
12 11 7 10 10 6 11 13 11 14 11 15 16 13 14 10 10 9 8 13 11 24 29 35 47 45 38 33 22 16 11 1 2 9 7 15 23 23 21 22 26 18 8 5 4 2 4 8 18 25 23 28 31 36
8 9 9 12 9 8 9 11 10 7 7 7 6 7 7 7 8 7 8 11 14 25 34 42 45 47 47 42 30 21 16 9 1 4 1 8 16 19 18 19 12 15 16 8 6 11 16 20 22 27 27 33 41 42
13 7 6 10 13 7 6 9 10 8 8 7 3 7 8 9 6 7 7 8 13 15 16 19 18 20 28 36 42 39 29 18 13 6 2 4 12 15 14 12 6 3 9 11 12 17 23 26 24 38 36 37 45 50
5 9 7 10 10 8 7 6 8 7 7 4 6 9 6 6 5 6 5 6 3 8 8 6 10 19 20 22 30 38 40 30 24 16 8 5 5 9 11 9 7 8 8 7 13 26 29 26 26 49 50 48 46 41
7 12 14 9 10 9 6 5 4 1 5 7 8 8 7 5 6 7 2 4 9 10 10 9 10 12 15 18 24 29 37 31 31 18 9 9 4 3 6 6 10 7 7 11 18 31 38 41 46 42 42 34 21 19
6 9 13 14 10 8 10 16 15 7 8 6 1 7 5 6 7 4 8 11 15 16 14 13 14 13 14 14 14 20 31 27 24 15 12 14 10 4 5 11 11 8 15 24 21 17 16 23 29 21 27 30 26 32
12 8 8 7 12 15 7 7 5 6 4 4 2 3 5 6 5 13 16 20 16 11 9 6 3 8 11 14 17 25 27 27 23 21 25 21 16 18 19 18 24 27 30 31 31 30 31 30 29 29 28 26 30 35
10 10 10 17 13 12 13 10 6 8 10 11 6 5 7 14 37 58 38 23 12 10 11 10 7 7 14 24 25 24 24 26 31 29 27 28 31 26 19 34 39 35 36 25 30 31 28 30 30 27 27 28 27 26
12 19 10 9 7 7 9 12 13 16 18 30 29 27 33 37 11 12 15 15 12 15 20 26 24 18 20 27 29 25 23 23 21 27 44 44 29 33 37 43 39 23 27 28 29 28 30 29 24 19 17 16 15 16
8 7 9 11 9 19 28 33 39 41 40 36 33 24 15 5 9 14 19 25 27 24 25 26 29 30 26 26 25 28 29 25 25 19 25 42 32 25 22 22 24 31 31 29 31 30 27 23 22 20 16 10 7 8
10 16 10 6 8 22 31 23 13 1 5 5 3 4 3 7 8 9 13 21 24 23 25 24 22 25 27 32 35 37 40 38 40 46 40 39 39 36 35 32 30 27 25 25 24 22 19 15 11 9 8 4 2 3
9 12 15 13 9 8 3 3 8 7 7 7 10 12 11 8 9 12 16 18 18 21 24 25 28 32 34 37 41 42 45 47 47 43 39 35 31 28 26 24 23 21 19 18 15 11 5 1 5 9 6 5 8 11
Wind_Direction_850mb
309 311 314 314 315 317 317 315 314 314 311 324 300 302 308 312 312 307 295 259 235 254 271 266 262 266 271 273 258 314 315 197 272 234 185 276 265 355 303 205 171 161 149 169 140 199 232 158 135 196 210 136 170 171
311 313 317 317 316 317 316 314 311 307 287 287 304 319 315 318 317 302 298 285 253 250 260 280 275 268 250 246 263 261 284 306 295 291 234 136 292 337 11 264 81 206 184 165 194 199 75 177 173 182 170 154 166 165
311 311 311 311 313 314 312 312 311 299 296 262 288 293 296 300 314 293 288 289 284 280 289 274 278 301 264 243 232 236 250 228 235 337 299 91 224 313 266 298 299 255 205 111 148 178 212 193 186 196 207 172 162 164
311 311 313 314 313 312 312 312 311 305 289 278 269 293 296 295 291 303 287 284 276 274 278 289 290 291 274 259 243 221 220 215 275 279 260 158 170 139 259 290 309 295 172 141 92 74 132 195 200 192 171 154 153 154
304 305 307 307 310 314 313 313 308 304 297 279 261 275 291 295 297 294 296 282 259 241 286 292 306 240 309 231 227 224 222 235 272 300 261 191 160 109 277 296 251 210 172 189 176 178 169 196 190 174 163 159 157 154
302 300 296 297 304 310 315 312 301 297 301 290 266 262 287 296 312 322 297 265 243 232 288 301 302 303 330 291 234 216 217 214 214 207 241 186 277 190 236 234 256 215 182 247 5 174 186 178 171 167 163 159 156 154
308 307 303 304 305 306 320 320 320 302 294 300 288 270 278 283 290 272 259 270 51 41 270 291 286 289 325 80 140 169 178 193 200 221 221 193 215 224 261 255 286 20 327 262 36 163 146 166 173 169 167 163 156 154
309 308 307 308 310 309 319 313 314 309 302 292 299 283 281 279 285 285 274 246 270 256 258 271 280 297 325 227 139 159 169 186 204 226 231 209 135 209 237 248 253 271 280 272 201 188 205 184 173 171 172 171 169 165
306 306 309 313 313 307 316 312 315 305 306 281 293 291 286 265 257 254 235 256 248 218 265 256 287 304 330 284 166 176 169 178 194 220 217 184 142 229 232 233 229 222 228 231 197 193 185 183 178 184 181 179 177 177
305 304 304 308 306 299 308 315 316 306 296 286 304 288 285 306 306 289 250 228 213 208 223 253 251 270 308 297 218 179 190 194 194 211 163 222 221 229 241 260 260 249 251 193 182 196 188 180 183 180 186 191 190 190
295 296 298 300 299 289 309 319 326 306 322 323 304 272 293 316 289 226 245 223 171 233 217 240 229 242 254 266 41 339 302 181 227 156 219 223 243 218 231 238 251 229 192 201 198 209 204 197 187 182 190 199 198 200
288 290 291 291 291 274 305 322 305 284 265 289 298 296 302 252 238 298 257 181 217 244 200 222 251 223 253 230 239 344 299 338 264 149 230 247 240 263 219 220 230 222 203 180 191 188 191 184 185 187 194 201 206 208
289 289 293 291 277 253 287 286 265 291 248 262 273 262 272 240 242 213 229 210 253 345 359 306 287 261 243 229 237 182 215 237 300 214 248 261 347 336 275 219 217 216 209 217 228 206 195 199 194 195 199 201 201 203
290 292 296 292 250 242 277 277 240 273 275 251 243 244 224 230 241 241 351 24 320 279 299 298 267 243 218 212 192 237 197 230 232 226 250 357 340 337 335 245 237 231 222 239 242 235 226 230 218 207 206 208 210 213
286 301 300 232 245 256 267 215 187 230 266 267 251 246 230 250 283 285 293 299 287 287 279 286 263 237 221 234 215 294 227 263 250 288 348 341 338 338 5 5 224 225 233 239 239 238 235 233 224 212 218 217 208 203
292 301 258 215 250 280 250 213 176 208 258 249 240 261 260 276 285 300 308 306 323 312 304 234 298 267 121 310 253 252 266 251 3 331 319 334 348 351 354 15 5 224 214 221 222 228 229 224 225 220 222 213 203 193
282 245 267 294 277 239 196 181 176 235 242 246 247 249 266 279 267 273 280 292 325 325 310 287 215 340 22 279 228 158 244 325 329 340 343 344 354 11 28 35 32 51 217 215 219 220 217 204 206 208 213 214 205 200
233 218 355 75 110 121 166 168 230 249 248 245 251 262 244 257 270 278 282 296 307 302 298 317 290 235 249 285 70 116 269 290 329 4 5 24 29 26 26 32 22 48 55 145 167 174 178 188 196 201 195 193 175 178
243 238 236 169 160 151 181 222 231 263 254 265 262 268 267 270 277 282 280 281 281 269 277 263 261 245 281 282 299 295 318 309 7 357 14 28 29 28 33 55 22 60 116 136 171 162 167 173 186 196 185 168 177 182
238 239 236 202 199 249 240 226 212 255 266 274 272 270 266 263 276 280 275 268 253 214 216 218 233 244 188 43 14 353 336 72 46 21 26 25 17 14 18 23 31 52 49 58 106 183 197 188 190 192 199 202 200 195
212 218 229 187 213 241 276 271 253 248 281 264 282 283 270 269 264 257 257 248 201 211 222 224 240 253 265 282 334 342 349 59 44 25 19 11 7 6 13 16 10 16 93 51 66 197 199 191 201 208 214 213 212 206
199 203 220 226 218 244 255 239 251 288 269 265 287 258 263 269 262 237 217 200 234 231 227 233 240 250 257 263 282 311 319 320 34 13 3 7 10 17 11 2 16 21 14 53 95 134 155 194 214 210 195 177 173 165
212 220 242 191 220 236 254 229 245 241 261 264 269 264 256 254 241 224 243 226 242 246 250 248 254 256 254 257 256 263 261 243 219 27 18 356 3 10 11 11 9 31 45 51 108 134 138 124 122 127 136 145 145 142
206 210 250 197 213 262 254 232 225 252 255 249 319 275 248 244 233 232 249 242 245 271 275 264 254 247 239 238 239 238 232 225 223 244 224 336 358 3 5 16 22 12 54 64 101 113 120 123 131 139 137 137 132 128
210 220 224 240 220 237 231 239 222 231 255 193 234 243 248 260 246 233 230 257 284 328 328 301 243 235 231 233 233 229 225 234 235 237 254 228 357 10 37 44 55 66 75 100 140 122 128 119 141 136 129 130 128 125
242 207 193 217 205 219 237 264 226 216 285 251 251 276 288 278 262 259 241 307 312 318 303 283 261 254 253 244 235 224 214 216 205 217 231 188 143 95 56 78 106 97 106 123 126 136 134 143 144 143 130 124 113 115
243 232 220 235 258 275 263 258 259 247 254 240 342 340 326 264 251 295 333 341 342 334 320 309 244 246 253 241 218 196 189 188 194 223 210 168 149 130 102 120 109 88 132 141 153 162 157 152 144 137 128 131 149 146
241 269 239 215 219 228 259 269 241 239 232 140 84 336 289 290 296 322 307 351 343 4 14 3 285 244 217 189 170 168 174 190 202 173 151 139 120 108 113 119 111 103 106 110 113 118 128 129 128 132 138 146 142 151
237 237 240 260 252 240 223 225 245 247 202 166 180 209 239 243 279 299 316 332 3 30 34 36 61 88 145 156 152 158 171 160 158 159 149 129 119 108 115 124 107 96 110 133 125 124 137 132 127 120 118 122 135 156
248 219 225 244 227 230 245 232 263 283 269 289 280 270 274 293 345 30 47 62 77 68 75 78 80 93 121 153 151 142 140 150 155 162 140 126 129 125 112 130 127 133 134 132 135 128 136 131 127 125 129 135 149 166
255 220 236 237 252 260 278 291 283 277 272 270 279 257 253 295 69 67 81 70 60 77 88 88 88 87 90 104 124 141 142 144 140 133 143 151 154 152 156 144 131 128 122 114 120 121 121 110 99 92 90 96 117 169
221 214 242 270 287 285 290 274 261 250 51 51 8 12 68 92 71 58 44 41 49 90 89 87 86 86 94 102 111 115 117 121 129 135 131 131 133 132 132 131 130 124 114 114 118 121 118 111 98 69 58 67 66 187
236 252 269 290 283 282 276 352 75 68 336 336 32 37 49 51 63 39 45 58 89 108 102 93 85 85 103 116 113 113 118 123 127 134 138 140 138 135 134 132 132 135 131 121 113 115 122 328 319 312 284 257 227 211